Nellis AFB, NV

10:15 AM PST on December 15, 2019 (GMT -0800)
Nellis Air Force Base

Weather History for KLSV - October, 2019

Change the Weather History Date:

Monday, October 7, 2019

  Actual Average Record
Temperature  
Mean Temperature 72 °F -  
Max Temperature 88 °F 85 °F 100 °F (1996)
Min Temperature 56 °F 58 °F 47 °F (2011)
Cooling Degree Days 7    
Growing Degree Days 22 (Base 50)    
Moisture  
Dew Point 18 °F    
Average Humidity 14    
Maximum Humidity 24    
Minimum Humidity 7    
Precipitation  
Precipitation 0.00 in - - ()
Sea Level Pressure  
Sea Level Pressure 29.96 in    
Wind  
Wind Speed 4 mph (NW)    
Max Wind Speed 13 mph    
Max Gust Speed -    
Visibility 10 miles    
Events      
Averages and records for this station are not official NWS values.
T = Trace of Precipitation, MM = Missing Value Source: NWS Daily Summary

Daily Weather History Graph

Daily Weather History Graph

Search for Another Location

Airport or City:

Astronomy

Oct. 07, 2019 Rise Set
Actual Time 6:40 AM PDT 6:15 PM PDT
Civil Twilight 6:14 AM PDT 6:40 PM PDT
Nautical Twilight 5:44 AM PDT 7:10 PM PDT
Astronomical Twilight 5:14 AM PDT 7:40 PM PDT
Moon 3:27 PM PDT (10/7) 12:49 AM PDT (10/7)
Length of Visible Light 12h 26m
Length of Day
11h 35m
Waxing Gibbous, 70% of the Moon is Illuminated
Oct 7
Waxing Gibbous
Oct 13
Full
Oct 21
Last Quarter
Oct 27
New
Nov 4
First Quarter

Hourly Weather History & Observations

Time (PDT) Temp. Dew Point Humidity Pressure Visibility Wind Dir Wind Speed Gust Speed Precip Events Conditions
12:53 AM 67.6 °F 22.6 °F 18% 30.04 in 10.0 mi West 6.9 mph - N/A   Clear
1:55 AM 63.0 °F 22.5 °F 21% 30.04 in 10.0 mi NW 3.5 mph - N/A   Clear
2:55 AM 60.8 °F 21.7 °F 22% 30.04 in 10.0 mi North 5.8 mph - N/A   Clear
3:57 AM 61.3 °F 22.1 °F 22% 30.02 in 10.0 mi Calm Calm - N/A   Clear
4:55 AM 59.9 °F 21.0 °F 22% 30.04 in 10.0 mi WSW 5.8 mph - N/A   Clear
5:53 AM 59.4 °F 21.6 °F 23% 30.04 in 10.0 mi SSW 3.5 mph - N/A   Clear
6:56 AM 56.7 °F 20.3 °F 24% 30.05 in 10.0 mi Calm Calm - N/A   Clear
7:56 AM 60.8 °F 22.8 °F 23% 30.06 in 10.0 mi Calm Calm - N/A   Clear
8:58 AM 65.1 °F 23.0 °F 20% 30.07 in 10.0 mi Calm Calm - N/A   Clear
9:58 AM 74.5 °F 18.5 °F 12% 30.06 in 10.0 mi Calm Calm - N/A   Clear
10:58 AM 78.6 °F 19.8 °F 11% 30.02 in 10.0 mi West 3.5 mph - N/A   Clear
11:58 AM 80.8 °F 19.0 °F 10% 30.00 in 10.0 mi SW 5.8 mph - N/A   Clear
12:58 PM 83.5 °F 12.9 °F 7% 29.97 in 10.0 mi NNE 12.7 mph - N/A   Clear
1:58 PM 84.6 °F 13.6 °F 7% 29.93 in 10.0 mi North 5.8 mph - N/A   Clear
2:58 PM 86.5 °F 15.1 °F 7% 29.90 in 10.0 mi ENE 6.9 mph - N/A   Clear
3:58 PM 86.7 °F 15.3 °F 7% 29.88 in 10.0 mi North 3.5 mph - N/A   Clear
4:58 PM 88.0 °F 16.2 °F 7% 29.85 in 10.0 mi Calm Calm - N/A   Clear
5:58 PM 86.5 °F 15.1 °F 7% 29.84 in 10.0 mi Calm Calm - N/A   Clear
6:58 PM 81.0 °F 16.9 °F 9% 29.85 in 10.0 mi SSW 2.3 mph - N/A   Clear
7:58 PM 75.7 °F 15.3 °F 10% 29.84 in 10.0 mi NW 3.5 mph - N/A   Clear
8:58 PM 69.4 °F 14.5 °F 12% 29.86 in 10.0 mi North 6.9 mph - N/A   Clear
9:58 PM 66.0 °F 11.8 °F 12% 29.86 in 10.0 mi Calm Calm - N/A   Clear
10:58 PM 66.2 °F 13.8 °F 13% 29.86 in 10.0 mi Calm Calm - N/A   Clear
11:58 PM 62.2 °F 14.0 °F 15% 29.84 in 10.0 mi Calm Calm - N/A   Clear